,,Stat6,,Stat2,,Stat8,,Stat9,,Stat10,,Wind1,,Wind1,
time,status,PA1M_AVG,status,PR1M_SUM,status,RH1M_AVG,status,SR1M_AVG,status,TA1M_AVG,status,W1dAve1m,status,W1sAve1m,
2009-03-17, 00:00:00,VALID,917.865,VALID,0,VALID,100,VALID,-0.0169808,VALID,19.915,VALID,21,VALID,0,","
2009-03-17, 00:01:00,VALID,917.851,VALID,0,VALID,100,VALID,-0.0169808,VALID,19.8303,VALID,26,VALID,0,","
2009-03-17, 00:02:00,VALID,917.839,VALID,0,VALID,100,VALID,-0.0169808,VALID,19.7749,VALID,46,VALID,0,","
2009-03-17, 00:03:00,VALID,917.814,VALID,0,VALID,100,VALID,-0.0339617,VALID,19.7622,VALID,51,VALID,0,","
2009-03-17, 00:04:00,VALID,917.808,VALID,0,VALID,100,VALID,-0.0339617,VALID,19.762,VALID,51,VALID,0,","
2009-03-17, 00:05:00,VALID,917.793,VALID,0,VALID,100,VALID,-0.0169808,VALID,19.7679,VALID,51,VALID,0,","
2009-03-17, 00:06:00,VALID,917.804,VALID,0,VALID,100,VALID,-0.0169808,VALID,19.7649,VALID,51,VALID,0,","
2009-03-17, 00:07:00,VALID,917.797,VALID,0,VALID,100,VALID,-0.0339617,VALID,19.7452,VALID,49,VALID,0,","
2009-03-17, 00:08:00,VALID,917.805,VALID,0,VALID,100,VALID,0,VALID,19.749,VALID,33,VALID,0,","
2009-03-17, 00:09:00,VALID,917.806,VALID,0,VALID,100,VALID,-0.0169808,VALID,19.7555,VALID,25,VALID,0,","
2009-03-17, 00:10:00,VALID,917.778,VALID,0,VALID,100,VALID,-0.0169808,VALID,19.7654,VALID,25,VALID,0,","
2009-03-17, 00:11:00,VALID,917.769,VALID,0,VALID,100,VALID,0,VALID,19.7879,VALID,25,VALID,0,","
2009-03-17, 00:12:00,VALID,917.747,VALID,0,VALID,100,VALID,-0.0169808,VALID,19.8039,VALID,25,VALID,0,","
2009-03-17, 00:13:00,VALID,917.728,VALID,0,VALID,100,VALID,0,VALID,19.8268,VALID,25,VALID,0,","
2009-03-17, 00:14:00,VALID,917.724,VALID,0,VALID,100,VALID,0.0169808,VALID,19.8433,VALID,25,VALID,0,","
2009-03-17, 00:15:00,VALID,917.706,VALID,0,VALID,100,VALID,-0.0169808,VALID,19.8555,VALID,25,VALID,0,","
2009-03-17, 00:16:00,VALID,917.694,VALID,0,VALID,100,VALID,-0.0169808,VALID,19.8583,VALID,25,VALID,0,","
2009-03-17, 00:17:00,VALID,917.675,VALID,0,VALID,100,VALID,0,VALID,19.8458,VALID,25,VALID,0,","
2009-03-17, 00:18:00,VALID,917.666,VALID,0,VALID,100,VALID,-0.0169808,VALID,19.8531,VALID,24,VALID,0,","
2009-03-17, 00:19:00,VALID,917.66,VALID,0,VALID,100,VALID,0,VALID,19.8523,VALID,21,VALID,0,","
2009-03-17, 00:20:00,VALID,917.68,VALID,0,VALID,100,VALID,0,VALID,19.8655,VALID,18,VALID,0,","
2009-03-17, 00:21:00,VALID,917.656,VALID,0,VALID,100,VALID,0,VALID,19.898,VALID,18,VALID,0,","
2009-03-17, 00:22:00,VALID,917.664,VALID,0,VALID,100,VALID,0.0169808,VALID,19.9272,VALID,18,VALID,0,","
2009-03-17, 00:23:00,VALID,917.63,VALID,0,VALID,100,VALID,0,VALID,19.9115,VALID,18,VALID,0,","
2009-03-17, 00:24:00,VALID,917.622,VALID,0,VALID,100,VALID,-0.0169808,VALID,19.8947,VALID,22,VALID,0,","
2009-03-17, 00:25:00,VALID,917.624,VALID,0,VALID,100,VALID,0.0169808,VALID,19.9307,VALID,24,VALID,0,","
2009-03-17, 00:26:00,VALID,917.611,VALID,0,VALID,100,VALID,0,VALID,19.9469,VALID,29,VALID,0,","
2009-03-17, 00:27:00,VALID,917.584,VALID,0,VALID,100,VALID,0,VALID,19.9594,VALID,32,VALID,0,","
2009-03-17, 00:28:00,VALID,917.585,VALID,0,VALID,100,VALID,0,VALID,19.9794,VALID,33,VALID,0,","
2009-03-17, 00:29:00,VALID,917.565,VALID,0,VALID,100,VALID,0,VALID,19.9659,VALID,35,VALID,0,","
2009-03-17, 00:30:00,VALID,917.561,VALID,0,VALID,100,VALID,0,VALID,19.9916,VALID,33,VALID,0,","
2009-03-17, 00:31:00,VALID,917.559,VALID,0,VALID,100,VALID,-0.0169808,VALID,20.0111,VALID,33,VALID,0,","
2009-03-17, 00:32:00,VALID,917.541,VALID,0,VALID,100,VALID,-0.0169808,VALID,20.0445,VALID,33,VALID,0,","
2009-03-17, 00:33:00,VALID,917.511,VALID,0,VALID,100,VALID,-0.0169808,VALID,20.064,VALID,31,VALID,0,","
2009-03-17, 00:34:00,VALID,917.498,VALID,0,VALID,100,VALID,-0.0169808,VALID,20.064,VALID,28,VALID,0,","
2009-03-17, 00:35:00,VALID,917.486,VALID,0,VALID,100,VALID,0,VALID,20.0575,VALID,27,VALID,0,","
2009-03-17, 00:36:00,VALID,917.455,VALID,0,VALID,100,VALID,0,VALID,20.0637,VALID,27,VALID,0,","
2009-03-17, 00:37:00,VALID,917.444,VALID,0,VALID,100,VALID,-0.0339617,VALID,20.0772,VALID,24,VALID,0,","
2009-03-17, 00:38:00,VALID,917.451,VALID,0,VALID,100,VALID,-0.0169808,VALID,20.0735,VALID,24,VALID,0,","
2009-03-17, 00:39:00,VALID,917.468,VALID,0,VALID,100,VALID,-0.0339617,VALID,20.051,VALID,10,VALID,0,","
2009-03-17, 00:40:00,VALID,917.475,VALID,0,VALID,100,VALID,0,VALID,20.0545,VALID,350,VALID,0,","
2009-03-17, 00:41:00,VALID,917.498,VALID,0,VALID,100,VALID,-0.0509425,VALID,20.0475,VALID,3,VALID,0,","
2009-03-17, 00:42:00,VALID,917.503,VALID,0,VALID,100,VALID,-0.0509425,VALID,20.0572,VALID,5,VALID,0,","
2009-03-17, 00:43:01,VALID,917.498,VALID,0,VALID,100,VALID,-0.0339617,VALID,20.0735,VALID,13,VALID,0,","
2009-03-17, 00:44:01,VALID,917.479,VALID,0,VALID,100,VALID,-0.0509425,VALID,20.0932,VALID,27,VALID,0,","
2009-03-17, 00:45:00,VALID,917.464,VALID,0,VALID,100,VALID,-0.0339617,VALID,20.0992,VALID,26,VALID,0,","
2009-03-17, 00:46:00,VALID,917.448,VALID,0,VALID,100,VALID,-0.0339617,VALID,20.1194,VALID,26,VALID,0,","
2009-03-17, 00:47:00,VALID,917.426,VALID,0,VALID,100,VALID,-0.0679233,VALID,20.1224,VALID,26,VALID,0,","
2009-03-17, 00:48:00,VALID,917.407,VALID,0,VALID,100,VALID,-0.0169808,VALID,20.1097,VALID,23,VALID,0,","
2009-03-17, 00:49:01,VALID,917.413,VALID,0,VALID,100,VALID,-0.0339617,VALID,20.1189,VALID,18,VALID,0,","
2009-03-17, 00:50:00,VALID,917.414,VALID,0,VALID,100,VALID,-0.0509425,VALID,20.1256,VALID,18,VALID,0,","
2009-03-17, 00:51:00,VALID,917.404,VALID,0,VALID,100,VALID,-0.0339617,VALID,20.1449,VALID,18,VALID,0,","
2009-03-17, 00:52:00,VALID,917.385,VALID,0,VALID,100,VALID,-0.0339617,VALID,20.1381,VALID,7,VALID,0,","
2009-03-17, 00:53:00,VALID,917.373,VALID,0,VALID,100,VALID,0,VALID,20.1214,VALID,5,VALID,0,","
2009-03-17, 00:54:00,VALID,917.382,VALID,0,VALID,100,VALID,0,VALID,20.1279,VALID,5,VALID,0,","
2009-03-17, 00:55:01,VALID,917.387,VALID,0,VALID,100,VALID,-0.0169808,VALID,20.1543,VALID,16,VALID,0,","
2009-03-17, 00:56:01,VALID,917.397,VALID,0,VALID,100,VALID,0,VALID,20.1638,VALID,13,VALID,0,","
2009-03-17, 00:57:00,VALID,917.389,VALID,0,VALID,100,VALID,-0.0169808,VALID,20.1438,VALID,46,VALID,0,","
2009-03-17, 00:58:01,VALID,917.378,VALID,0,VALID,100,VALID,-0.0169808,VALID,20.1583,VALID,46,VALID,0,","
2009-03-17, 00:59:01,VALID,917.363,VALID,0,VALID,100,VALID,-0.0339617,VALID,20.1473,VALID,46,VALID,0,","
2009-03-17, 01:00:00,VALID,917.352,VALID,0,VALID,100,VALID,-0.0169808,VALID,20.1344,VALID,46,VALID,0,","
2009-03-17, 01:01:00,VALID,917.333,VALID,0,VALID,100,VALID,0,VALID,20.1444,VALID,46,VALID,0,","
2009-03-17, 01:02:01,VALID,917.314,VALID,0,VALID,100,VALID,0.0169808,VALID,20.1279,VALID,46,VALID,0,","
2009-03-17, 01:03:00,VALID,917.303,VALID,0,VALID,100,VALID,0,VALID,20.1052,VALID,45,VALID,0,","
2009-03-17, 01:04:00,VALID,917.314,VALID,0,VALID,100,VALID,0,VALID,20.0859,VALID,44,VALID,0,","
2009-03-17, 01:05:00,VALID,917.297,VALID,0,VALID,100,VALID,0,VALID,20.0859,VALID,44,VALID,0,","
2009-03-17, 01:06:01,VALID,917.282,VALID,0,VALID,100,VALID,0,VALID,20.0829,VALID,44,VALID,0,","
2009-03-17, 01:07:00,VALID,917.259,VALID,0,VALID,100,VALID,0,VALID,20.0794,VALID,44,VALID,0,","
2009-03-17, 01:08:00,VALID,917.262,VALID,0,VALID,100,VALID,-0.0169808,VALID,20.0732,VALID,44,VALID,0,","
2009-03-17, 01:09:00,VALID,917.253,VALID,0,VALID,100,VALID,-0.0169808,VALID,20.0732,VALID,44,VALID,0,","
2009-03-17, 01:10:00,VALID,917.238,VALID,0,VALID,100,VALID,0.0169808,VALID,20.0403,VALID,39,VALID,0,","
2009-03-17, 01:11:00,VALID,917.227,VALID,0,VALID,100,VALID,0.0169808,VALID,19.9983,VALID,34,VALID,0,","
2009-03-17, 01:12:00,VALID,917.238,VALID,0,VALID,100,VALID,0,VALID,19.9824,VALID,40,VALID,0,","
2009-03-17, 01:13:01,VALID,917.232,VALID,0,VALID,100,VALID,0,VALID,19.9694,VALID,41,VALID,0,","
2009-03-17, 01:14:00,VALID,917.244,VALID,0,VALID,100,VALID,-0.0849042,VALID,19.9699,VALID,41,VALID,0,","
2009-03-17, 01:15:00,VALID,917.255,VALID,0,VALID,100,VALID,-0.0169808,VALID,19.9591,VALID,41,VALID,0,","
2009-03-17, 01:16:00,VALID,917.28,VALID,0,VALID,100,VALID,0,VALID,19.9402,VALID,40,VALID,0,","
2009-03-17, 01:17:00,VALID,917.273,VALID,0,VALID,100,VALID,0.0169808,VALID,19.9304,VALID,38,VALID,0,","
2009-03-17, 01:18:00,VALID,917.263,VALID,0,VALID,100,VALID,0,VALID,19.917,VALID,33,VALID,0,","
2009-03-17, 01:19:01,VALID,917.232,VALID,0,VALID,100,VALID,-0.0339617,VALID,19.9017,VALID,32,VALID,0,","
2009-03-17, 01:20:01,VALID,917.216,VALID,0,VALID,100,VALID,-0.0339617,VALID,19.8688,VALID,32,VALID,0.15298,","
2009-03-17, 01:21:00,VALID,917.213,VALID,0,VALID,100,VALID,-0.0679233,VALID,19.8523,VALID,31,VALID,0,","
2009-03-17, 01:22:00,VALID,917.211,VALID,0,VALID,100,VALID,0,VALID,19.8393,VALID,15,VALID,0.0474466,","
2009-03-17, 01:23:00,VALID,917.214,VALID,0,VALID,100,VALID,-0.0339617,VALID,19.8261,VALID,16,VALID,0,","
2009-03-17, 01:24:01,VALID,917.211,VALID,0,VALID,100,VALID,0,VALID,19.8358,VALID,26,VALID,0,","
2009-03-17, 01:25:00,VALID,917.203,VALID,0,VALID,100,VALID,0,VALID,19.8458,VALID,53,VALID,0,","
2009-03-17, 01:26:01,VALID,917.209,VALID,0,VALID,100,VALID,-0.0169808,VALID,19.8625,VALID,43,VALID,0,","
2009-03-17, 01:27:00,VALID,917.215,VALID,0,VALID,100,VALID,0.0169808,VALID,19.8456,VALID,30,VALID,0,","
2009-03-17, 01:28:00,VALID,917.204,VALID,0,VALID,100,VALID,-0.0169808,VALID,19.8458,VALID,30,VALID,0,","
2009-03-17, 01:29:01,VALID,917.193,VALID,0,VALID,100,VALID,-0.0339617,VALID,19.8326,VALID,30,VALID,0,","
2009-03-17, 01:30:01,VALID,917.208,VALID,0,VALID,100,VALID,-0.0169808,VALID,19.8236,VALID,38,VALID,0,","
2009-03-17, 01:31:01,VALID,917.193,VALID,0,VALID,100,VALID,-0.0169808,VALID,19.7976,VALID,43,VALID,0,","
2009-03-17, 01:32:01,VALID,917.188,VALID,0,VALID,100,VALID,0.0169808,VALID,19.7709,VALID,121,VALID,0,","
2009-03-17, 01:33:00,VALID,917.186,VALID,0,VALID,100,VALID,-0.0169808,VALID,19.7779,VALID,138,VALID,0,","
2009-03-17, 01:34:01,VALID,917.174,VALID,0,VALID,100,VALID,0,VALID,19.7779,VALID,140,VALID,0,","
2009-03-17, 01:35:01,VALID,917.162,VALID,0,VALID,100,VALID,0,VALID,19.7941,VALID,142,VALID,0,","
2009-03-17, 01:36:01,VALID,917.138,VALID,0,VALID,100,VALID,0,VALID,19.8071,VALID,146,VALID,0,","
2009-03-17, 01:37:01,VALID,917.123,VALID,0,VALID,100,VALID,0,VALID,19.8196,VALID,151,VALID,0,","
2009-03-17, 01:38:01,VALID,917.107,VALID,0,VALID,100,VALID,0,VALID,19.8229,VALID,152,VALID,0,","
2009-03-17, 01:39:01,VALID,917.099,VALID,0,VALID,100,VALID,0,VALID,19.8226,VALID,142,VALID,0,","
2009-03-17, 01:40:01,VALID,917.076,VALID,0,VALID,100,VALID,0,VALID,19.8496,VALID,56,VALID,0,","
2009-03-17, 01:41:00,VALID,917.059,VALID,0,VALID,100,VALID,-0.0339617,VALID,19.8458,VALID,49,VALID,0,","
2009-03-17, 01:42:00,VALID,917.037,VALID,0,VALID,100,VALID,-0.0509425,VALID,19.8555,VALID,49,VALID,0,","
2009-03-17, 01:43:00,VALID,917.029,VALID,0,VALID,100,VALID,0,VALID,19.8453,VALID,49,VALID,0,","
2009-03-17, 01:44:00,VALID,917.011,VALID,0,VALID,100,VALID,0,VALID,19.8391,VALID,49,VALID,0,","
2009-03-17, 01:45:00,VALID,916.974,VALID,0,VALID,100,VALID,-0.0169808,VALID,19.8258,VALID,49,VALID,0,","
2009-03-17, 01:46:00,VALID,916.952,VALID,0,VALID,100,VALID,0,VALID,19.8226,VALID,49,VALID,0,","
2009-03-17, 01:47:00,VALID,916.941,VALID,0,VALID,100,VALID,0,VALID,19.7936,VALID,49,VALID,0,","
2009-03-17, 01:48:00,VALID,916.922,VALID,0,VALID,100,VALID,0,VALID,19.7644,VALID,54,VALID,0,","
2009-03-17, 01:49:00,VALID,916.924,VALID,0,VALID,100,VALID,0,VALID,19.7255,VALID,91,VALID,0,","
2009-03-17, 01:50:00,VALID,916.906,VALID,0,VALID,100,VALID,0,VALID,19.6928,VALID,104,VALID,0,","
2009-03-17, 01:51:00,VALID,916.889,VALID,0,VALID,100,VALID,0.0169808,VALID,19.6574,VALID,104,VALID,0,","
2009-03-17, 01:52:00,VALID,916.867,VALID,0,VALID,100,VALID,0.0169808,VALID,19.6152,VALID,107,VALID,0,","
2009-03-17, 01:53:00,VALID,916.876,VALID,0,VALID,100,VALID,-0.0339617,VALID,19.599,VALID,116,VALID,0,","
2009-03-17, 01:54:00,VALID,916.855,VALID,0,VALID,100,VALID,0.0169808,VALID,19.5693,VALID,116,VALID,0,","
2009-03-17, 01:55:00,VALID,916.822,VALID,0,VALID,100,VALID,0,VALID,19.5501,VALID,118,VALID,0,","
2009-03-17, 01:56:00,VALID,916.808,VALID,0,VALID,100,VALID,-0.0339617,VALID,19.5538,VALID,121,VALID,0,","
2009-03-17, 01:57:00,VALID,916.781,VALID,0,VALID,100,VALID,0,VALID,19.5338,VALID,116,VALID,0,","
2009-03-17, 01:58:00,VALID,916.752,VALID,0,VALID,100,VALID,0.0169808,VALID,19.5239,VALID,119,VALID,0,","
2009-03-17, 01:59:00,VALID,916.729,VALID,0,VALID,100,VALID,0,VALID,19.5341,VALID,122,VALID,0,","
2009-03-17, 02:00:00,VALID,916.724,VALID,0,VALID,100,VALID,-0.0169808,VALID,19.5248,VALID,114,VALID,0,","
2009-03-17, 02:01:00,VALID,916.713,VALID,0,VALID,100,VALID,0,VALID,19.5179,VALID,127,VALID,0.034375,","
2009-03-17, 02:02:00,VALID,916.71,VALID,0,VALID,100,VALID,0,VALID,19.5079,VALID,135,VALID,0,","
2009-03-17, 02:03:00,VALID,916.729,VALID,0,VALID,100,VALID,0,VALID,19.5243,VALID,148,VALID,0,","
2009-03-17, 02:04:00,VALID,916.716,VALID,0,VALID,100,VALID,-0.0169808,VALID,19.5308,VALID,150,VALID,0,","
2009-03-17, 02:05:00,VALID,916.709,VALID,0,VALID,100,VALID,0.0169808,VALID,19.5471,VALID,158,VALID,0,","
2009-03-17, 02:06:00,VALID,916.691,VALID,0,VALID,100,VALID,0,VALID,19.5635,VALID,157,VALID,0.0680043,","
2009-03-17, 02:07:00,VALID,916.661,VALID,0,VALID,100,VALID,0.0169808,VALID,19.5763,VALID,151,VALID,0,","
2009-03-17, 02:08:00,VALID,916.653,VALID,0,VALID,100,VALID,-0.0169808,VALID,19.576,VALID,148,VALID,0,","
2009-03-17, 02:09:00,VALID,916.651,VALID,0,VALID,100,VALID,0,VALID,19.5825,VALID,141,VALID,0,","
2009-03-17, 02:10:00,VALID,916.635,VALID,0,VALID,100,VALID,0.0339617,VALID,19.5922,VALID,138,VALID,0,","
2009-03-17, 02:11:00,VALID,916.619,VALID,0,VALID,100,VALID,0.0169808,VALID,19.5955,VALID,128,VALID,0,","
2009-03-17, 02:12:00,VALID,916.625,VALID,0,VALID,100,VALID,0.0169808,VALID,19.5857,VALID,128,VALID,0,","
2009-03-17, 02:13:00,VALID,916.602,VALID,0,VALID,100,VALID,0.0169808,VALID,19.5987,VALID,133,VALID,0,","
2009-03-17, 02:14:00,VALID,916.595,VALID,0,VALID,100,VALID,0,VALID,19.605,VALID,135,VALID,0,","
2009-03-17, 02:15:00,VALID,916.578,VALID,0,VALID,100,VALID,0,VALID,19.6119,VALID,131,VALID,0,","
2009-03-17, 02:16:00,VALID,916.569,VALID,0,VALID,100,VALID,0,VALID,19.6182,VALID,127,VALID,0,","
2009-03-17, 02:17:00,VALID,916.559,VALID,0,VALID,100,VALID,0.0339617,VALID,19.6117,VALID,121,VALID,0,","
2009-03-17, 02:18:00,VALID,916.545,VALID,0,VALID,100,VALID,0.0339617,VALID,19.6119,VALID,119,VALID,0,","
2009-03-17, 02:19:00,VALID,916.547,VALID,0,VALID,100,VALID,0.0339617,VALID,19.599,VALID,126,VALID,0,","
2009-03-17, 02:20:00,VALID,916.547,VALID,0,VALID,100,VALID,0,VALID,19.586,VALID,134,VALID,0,","
2009-03-17, 02:21:00,VALID,916.541,VALID,0,VALID,100,VALID,0.0169808,VALID,19.589,VALID,140,VALID,0,","
2009-03-17, 02:22:00,VALID,916.545,VALID,0,VALID,100,VALID,0.0509425,VALID,19.5987,VALID,139,VALID,0,","
2009-03-17, 02:23:00,VALID,916.527,VALID,0,VALID,100,VALID,-0.0339617,VALID,19.5962,VALID,139,VALID,0,","
2009-03-17, 02:24:00,VALID,916.501,VALID,0,VALID,100,VALID,-0.0679233,VALID,19.5935,VALID,140,VALID,0,","
2009-03-17, 02:25:00,VALID,916.49,VALID,0,VALID,100,VALID,-0.0849042,VALID,19.6035,VALID,140,VALID,0,","
2009-03-17, 02:26:00,VALID,916.471,VALID,0,VALID,100,VALID,-0.0679233,VALID,19.6,VALID,140,VALID,0,","
2009-03-17, 02:27:00,VALID,916.462,VALID,0,VALID,100,VALID,-0.101885,VALID,19.6,VALID,140,VALID,0,","
2009-03-17, 02:28:00,VALID,916.439,VALID,0,VALID,100,VALID,-0.101885,VALID,19.6065,VALID,140,VALID,0,","
2009-03-17, 02:29:00,VALID,916.405,VALID,0,VALID,100,VALID,-0.101885,VALID,19.6032,VALID,140,VALID,0,","
2009-03-17, 02:30:00,VALID,916.369,VALID,0,VALID,100,VALID,-0.101885,VALID,19.6199,VALID,140,VALID,0,","
2009-03-17, 02:31:00,VALID,916.35,VALID,0,VALID,100,VALID,-0.0849042,VALID,19.6329,VALID,140,VALID,0,","
2009-03-17, 02:32:00,VALID,916.33,VALID,0,VALID,100,VALID,-0.0509425,VALID,19.6324,VALID,140,VALID,0,","
2009-03-17, 02:33:00,VALID,916.33,VALID,0,VALID,100,VALID,-0.0679233,VALID,19.6489,VALID,140,VALID,0,","
2009-03-17, 02:34:00,VALID,916.318,VALID,0,VALID,100,VALID,-0.0849042,VALID,19.6783,VALID,140,VALID,0,","
2009-03-17, 02:35:00,VALID,916.325,VALID,0,VALID,100,VALID,-0.0679233,VALID,19.6778,VALID,140,VALID,0,","
2009-03-17, 02:36:00,VALID,916.328,VALID,0,VALID,100,VALID,-0.0849042,VALID,19.6778,VALID,140,VALID,0,","
2009-03-17, 02:37:00,VALID,916.331,VALID,0,VALID,100,VALID,-0.0509425,VALID,19.6716,VALID,140,VALID,0,","
2009-03-17, 02:38:00,VALID,916.34,VALID,0,VALID,100,VALID,-0.0849042,VALID,19.6554,VALID,140,VALID,0,","
2009-03-17, 02:39:00,VALID,916.341,VALID,0,VALID,100,VALID,-0.0849042,VALID,19.6456,VALID,140,VALID,0,","
2009-03-17, 02:40:00,VALID,916.32,VALID,0,VALID,100,VALID,-0.101885,VALID,19.6297,VALID,140,VALID,0,","
2009-03-17, 02:41:00,VALID,916.31,VALID,0,VALID,100,VALID,-0.0849042,VALID,19.6002,VALID,137,VALID,0,","
2009-03-17, 02:42:00,VALID,916.31,VALID,0,VALID,100,VALID,-0.0509425,VALID,19.5775,VALID,136,VALID,0,","
2009-03-17, 02:43:00,VALID,916.316,VALID,0,VALID,100,VALID,-0.101885,VALID,19.5515,VALID,136,VALID,0,","
2009-03-17, 02:44:00,VALID,916.311,VALID,0,VALID,100,VALID,-0.0679233,VALID,19.5221,VALID,136,VALID,0,","
2009-03-17, 02:45:00,VALID,916.303,VALID,0,VALID,100,VALID,-0.0849042,VALID,19.5059,VALID,136,VALID,0,","
2009-03-17, 02:46:00,VALID,916.29,VALID,0,VALID,100,VALID,-0.101885,VALID,19.5061,VALID,136,VALID,0,","
2009-03-17, 02:47:00,VALID,916.255,VALID,0,VALID,100,VALID,-0.0849042,VALID,19.4834,VALID,136,VALID,0,","
2009-03-17, 02:48:00,VALID,916.214,VALID,0,VALID,100,VALID,-0.101885,VALID,19.425,VALID,136,VALID,0,","
2009-03-17, 02:49:00,VALID,916.181,VALID,0,VALID,100,VALID,-0.101885,VALID,19.3536,VALID,130,VALID,0,","
2009-03-17, 02:50:00,VALID,916.162,VALID,0,VALID,100,VALID,-0.0849042,VALID,19.3182,VALID,85,VALID,0,","
2009-03-17, 02:51:00,VALID,916.146,VALID,0,VALID,100,VALID,-0.101885,VALID,19.273,VALID,85,VALID,0,","
2009-03-17, 02:52:00,VALID,916.14,VALID,0,VALID,100,VALID,-0.118866,VALID,19.2466,VALID,85,VALID,0,","
2009-03-17, 02:53:00,VALID,916.123,VALID,0,VALID,100,VALID,-0.0509425,VALID,19.2231,VALID,85,VALID,0,","
2009-03-17, 02:54:00,VALID,916.119,VALID,0,VALID,100,VALID,-0.0169808,VALID,19.2131,VALID,85,VALID,0,","
2009-03-17, 02:55:00,VALID,916.093,VALID,0,VALID,100,VALID,-0.0169808,VALID,19.1967,VALID,85,VALID,0,","
2009-03-17, 02:56:00,VALID,916.081,VALID,0,VALID,100,VALID,0,VALID,19.1582,VALID,85,VALID,0,","
2009-03-17, 02:57:00,VALID,916.056,VALID,0,VALID,100,VALID,-0.0339617,VALID,19.0964,VALID,85,VALID,0,","
2009-03-17, 02:58:00,VALID,916.044,VALID,0,VALID,100,VALID,0,VALID,19.0664,VALID,85,VALID,0,","
2009-03-17, 02:59:00,VALID,916.054,VALID,0,VALID,100,VALID,-0.0169808,VALID,19.0512,VALID,85,VALID,0,","
2009-03-17, 03:00:00,VALID,916.08,VALID,0,VALID,100,VALID,-0.0339617,VALID,19.0148,VALID,85,VALID,0,","
2009-03-17, 03:01:00,VALID,916.091,VALID,0,VALID,100,VALID,0.0169808,VALID,18.9953,VALID,85,VALID,0,","
2009-03-17, 03:02:00,VALID,916.11,VALID,0,VALID,100,VALID,0.0339617,VALID,18.9891,VALID,85,VALID,0,","
2009-03-17, 03:03:00,VALID,916.125,VALID,0,VALID,100,VALID,0,VALID,18.9918,VALID,85,VALID,0,","
2009-03-17, 03:04:00,VALID,916.131,VALID,0,VALID,100,VALID,-0.0169808,VALID,19.0509,VALID,87,VALID,0,","
2009-03-17, 03:05:00,VALID,916.152,VALID,0,VALID,100,VALID,0,VALID,19.0734,VALID,88,VALID,0,","
2009-03-17, 03:06:00,VALID,916.16,VALID,0,VALID,100,VALID,0.0169808,VALID,19.0702,VALID,92,VALID,0,","
2009-03-17, 03:07:00,VALID,916.152,VALID,0,VALID,100,VALID,-0.0169808,VALID,19.0342,VALID,94,VALID,0,","
2009-03-17, 03:08:00,VALID,916.152,VALID,0,VALID,100,VALID,0.0169808,VALID,19.002,VALID,97,VALID,0,","
2009-03-17, 03:09:00,VALID,916.156,VALID,0,VALID,100,VALID,0,VALID,18.9701,VALID,129,VALID,0.130022,","
2009-03-17, 03:10:00,VALID,916.14,VALID,0,VALID,100,VALID,0.0169808,VALID,18.9272,VALID,138,VALID,0,","
2009-03-17, 03:11:00,VALID,916.109,VALID,0,VALID,100,VALID,0,VALID,18.8883,VALID,131,VALID,0,","
2009-03-17, 03:12:00,VALID,916.088,VALID,0,VALID,100,VALID,0,VALID,18.8693,VALID,119,VALID,0,","
2009-03-17, 03:13:00,VALID,916.085,VALID,0,VALID,100,VALID,-0.0169808,VALID,18.869,VALID,112,VALID,0,","
2009-03-17, 03:14:00,VALID,916.094,VALID,0,VALID,100,VALID,-0.0169808,VALID,18.872,VALID,122,VALID,0,","
2009-03-17, 03:15:00,VALID,916.105,VALID,0,VALID,100,VALID,0,VALID,18.8718,VALID,135,VALID,0,","
2009-03-17, 03:16:00,VALID,916.108,VALID,0,VALID,100,VALID,-0.0169808,VALID,18.872,VALID,136,VALID,0,","
2009-03-17, 03:17:00,VALID,916.117,VALID,0,VALID,100,VALID,0.0339617,VALID,18.8785,VALID,136,VALID,0.00090843,","
2009-03-17, 03:18:00,VALID,916.116,VALID,0,VALID,100,VALID,0,VALID,18.8913,VALID,142,VALID,0,","
2009-03-17, 03:19:00,VALID,916.113,VALID,0,VALID,100,VALID,0.0169808,VALID,18.8818,VALID,139,VALID,0,","
2009-03-17, 03:20:00,VALID,916.101,VALID,0,VALID,100,VALID,0,VALID,18.8718,VALID,139,VALID,0,","
2009-03-17, 03:21:00,VALID,916.108,VALID,0,VALID,100,VALID,0.0169808,VALID,18.8558,VALID,139,VALID,0,","
2009-03-17, 03:22:00,VALID,916.11,VALID,0,VALID,100,VALID,0,VALID,18.8266,VALID,139,VALID,0,","
2009-03-17, 03:23:00,VALID,916.098,VALID,0,VALID,100,VALID,0,VALID,18.8231,VALID,139,VALID,0,","
2009-03-17, 03:24:00,VALID,916.082,VALID,0,VALID,100,VALID,-0.0169808,VALID,18.8428,VALID,139,VALID,0,","
2009-03-17, 03:25:00,VALID,916.08,VALID,0,VALID,100,VALID,0,VALID,18.8034,VALID,139,VALID,0,","
2009-03-17, 03:26:00,VALID,916.065,VALID,0,VALID,100,VALID,-0.0509425,VALID,18.7717,VALID,139,VALID,0,","
2009-03-17, 03:27:00,VALID,916.046,VALID,0,VALID,100,VALID,0,VALID,18.7747,VALID,139,VALID,0,","
2009-03-17, 03:28:00,VALID,916.059,VALID,0,VALID,100,VALID,0,VALID,18.765,VALID,139,VALID,0,","
2009-03-17, 03:29:00,VALID,916.06,VALID,0,VALID,100,VALID,0,VALID,18.7133,VALID,135,VALID,0,","
2009-03-17, 03:30:00,VALID,916.075,VALID,0,VALID,100,VALID,0,VALID,18.6774,VALID,132,VALID,0,","
2009-03-17, 03:31:00,VALID,916.078,VALID,0,VALID,100,VALID,-0.0169808,VALID,18.7231,VALID,130,VALID,0,","
2009-03-17, 03:32:00,VALID,916.097,VALID,0,VALID,100,VALID,0,VALID,18.7096,VALID,130,VALID,0,","
2009-03-17, 03:33:00,VALID,916.101,VALID,0,VALID,100,VALID,0,VALID,18.6869,VALID,130,VALID,0,","
2009-03-17, 03:34:00,VALID,916.104,VALID,0,VALID,100,VALID,0.0169808,VALID,18.6091,VALID,130,VALID,0,","
2009-03-17, 03:35:00,VALID,916.113,VALID,0,VALID,100,VALID,0.0169808,VALID,18.5247,VALID,66,VALID,0,","
2009-03-17, 03:36:00,VALID,916.119,VALID,0,VALID,100,VALID,0,VALID,18.4207,VALID,59,VALID,0,","
2009-03-17, 03:37:00,VALID,916.142,VALID,0,VALID,100,VALID,0.0169808,VALID,18.3918,VALID,58,VALID,0,","
2009-03-17, 03:38:00,VALID,916.152,VALID,0,VALID,100,VALID,0,VALID,18.4337,VALID,58,VALID,0,","
2009-03-17, 03:39:00,VALID,916.182,VALID,0,VALID,100,VALID,-0.0339617,VALID,18.4698,VALID,58,VALID,0,","
2009-03-17, 03:40:00,VALID,916.199,VALID,0,VALID,100,VALID,-0.0169808,VALID,18.4471,VALID,58,VALID,0,","
2009-03-17, 03:41:00,VALID,916.208,VALID,0,VALID,100,VALID,0.0169808,VALID,18.421,VALID,58,VALID,0,","
2009-03-17, 03:42:00,VALID,916.205,VALID,0,VALID,100,VALID,0.0169808,VALID,18.4244,VALID,58,VALID,0,","
2009-03-17, 03:43:00,VALID,916.195,VALID,0,VALID,100,VALID,-0.0169808,VALID,18.4115,VALID,58,VALID,0,","
2009-03-17, 03:44:00,VALID,916.172,VALID,0,VALID,100,VALID,0,VALID,18.3561,VALID,58,VALID,0,","
2009-03-17, 03:45:00,VALID,916.166,VALID,0,VALID,100,VALID,-0.0169808,VALID,18.3399,VALID,58,VALID,0,","
2009-03-17, 03:46:00,VALID,916.133,VALID,0,VALID,100,VALID,0.0339617,VALID,18.3556,VALID,58,VALID,0,","
2009-03-17, 03:47:00,VALID,916.114,VALID,0,VALID,100,VALID,0,VALID,18.3626,VALID,58,VALID,0,","
2009-03-17, 03:48:00,VALID,916.105,VALID,0,VALID,100,VALID,0.0169808,VALID,18.3359,VALID,58,VALID,0,","
2009-03-17, 03:49:00,VALID,916.089,VALID,0,VALID,100,VALID,-0.0169808,VALID,18.291,VALID,58,VALID,0,","
2009-03-17, 03:50:00,VALID,916.061,VALID,0,VALID,100,VALID,0,VALID,18.2331,VALID,58,VALID,0,","